TimeGMT,TemperatureF,Dew PointF,Humidity,Sea Level PressureIn,VisibilityMPH,Wind Direction,Wind SpeedMPH,Gust SpeedMPH,PrecipitationIn,Events,Conditions,WindDirDegrees,DateUTC
12:00 AM,60,57,88,29.65,12,SSE,17.9,,,,Overcast,160,2011-10-31 00:00:00
12:00 AM,59.0,57.2,94,29.62,6.2,SSE,18.4,-,N/A,,Mostly Cloudy,160,2011-10-31 00:00:00
12:30 AM,59.0,57.2,94,29.62,6.2,South,20.7,-,N/A,,Mostly Cloudy,170,2011-10-31 00:30:00
1:00 AM,59.0,57.2,94,29.62,6.2,South,20.7,-,N/A,,Mostly Cloudy,170,2011-10-31 01:00:00
1:30 AM,60.8,57.2,88,29.59,6.2,South,25.3,-,N/A,,Mostly Cloudy,180,2011-10-31 01:30:00
2:00 AM,60.8,55.4,82,29.59,6.2,South,24.2,-,N/A,,Mostly Cloudy,170,2011-10-31 02:00:00
2:30 AM,59.0,55.4,88,29.59,6.2,South,23.0,-,N/A,,Mostly Cloudy,170,2011-10-31 02:30:00
3:00 AM,59.0,53.6,82,29.56,6.2,SSE,19.6,-,N/A,,Mostly Cloudy,160,2011-10-31 03:00:00
3:30 AM,59.0,53.6,82,29.56,6.2,SSE,18.4,-,N/A,,Mostly Cloudy,160,2011-10-31 03:30:00
4:00 AM,59.0,53.6,82,29.53,6.2,SSE,17.3,-,N/A,,Mostly Cloudy,160,2011-10-31 04:00:00
4:30 AM,59.0,53.6,82,29.53,6.2,SSE,18.4,-,N/A,,Mostly Cloudy,150,2011-10-31 04:30:00
5:00 AM,59.0,55.4,88,29.53,6.2,SSE,20.7,-,N/A,,Mostly Cloudy,150,2011-10-31 05:00:00
5:30 AM,59.0,55.4,88,29.50,6.2,SSE,19.6,-,N/A,Rain,Light Rain,150,2011-10-31 05:30:00
6:00 AM,59,55,82,29.52,10,SSE,22.4,,,Rain,Light Rain,160,2011-10-31 06:00:00
6:00 AM,59.0,55.4,88,29.50,6.2,SSE,23.0,-,N/A,,Mostly Cloudy,160,2011-10-31 06:00:00
6:30 AM,59.0,55.4,88,29.50,6.2,SSE,20.7,-,N/A,,Mostly Cloudy,150,2011-10-31 06:30:00
7:00 AM,59.0,55.4,88,29.47,6.2,SSE,19.6,-,N/A,,Mostly Cloudy,150,2011-10-31 07:00:00
7:30 AM,59.0,55.4,88,29.47,2.5,South,24.2,-,N/A,Rain,Light Rain,170,2011-10-31 07:30:00
8:00 AM,51.8,51.8,100,29.53,0.9,WSW,12.7,-,N/A,Rain,Light Rain,240,2011-10-31 08:00:00
8:30 AM,51.8,51.8,100,29.53,0.9,SW,12.7,-,N/A,Rain,Rain,230,2011-10-31 08:30:00
9:00 AM,51.8,51.8,100,29.53,3.7,SW,10.4,-,N/A,Rain,Light Rain,230,2011-10-31 09:00:00
9:30 AM,51.8,51.8,100,29.53,5.0,South,4.6,-,N/A,Rain,Light Rain,190,2011-10-31 09:30:00
10:00 AM,53.6,51.8,94,29.53,6.2,SSE,5.8,-,N/A,Rain,Light Rain,150,2011-10-31 10:00:00
10:30 AM,53.6,51.8,94,29.56,4.3,South,5.8,-,N/A,Rain,Light Rain,180,2011-10-31 10:30:00
11:00 AM,51.8,51.8,100,29.56,6.2,South,9.2,-,N/A,Rain,Light Rain,190,2011-10-31 11:00:00
11:30 AM,51.8,51.8,100,29.53,6.2,South,9.2,-,N/A,Rain,Light Rain,170,2011-10-31 11:30:00
12:00 PM,53,50,87,29.55,16,SSE,11.2,,,Rain,Light Rain,160,2011-10-31 12:00:00
12:00 PM,51.8,50.0,94,29.53,6.2,SSE,10.4,-,N/A,,Mostly Cloudy,160,2011-10-31 12:00:00
12:30 PM,53.6,51.8,94,29.53,6.2,SSE,10.4,-,N/A,,Mostly Cloudy,160,2011-10-31 12:30:00
1:00 PM,53.6,51.8,94,29.53,6.2,SE,6.9,-,N/A,,Mostly Cloudy,140,2011-10-31 13:00:00
1:30 PM,55.4,51.8,88,29.53,6.2,South,9.2,-,N/A,,Mostly Cloudy,170,2011-10-31 13:30:00
2:00 PM,55.4,50.0,82,29.53,3.1,SSW,12.7,-,N/A,Rain,Light Rain,200,2011-10-31 14:00:00
2:30 PM,51.8,48.2,88,29.53,3.7,SSW,15.0,-,N/A,,Mostly Cloudy,210,2011-10-31 14:30:00
3:00 PM,51.8,50.0,94,29.53,6.2,SSW,9.2,-,N/A,,Mostly Cloudy,200,2011-10-31 15:00:00
3:30 PM,53.6,51.8,94,29.53,6.2,South,10.4,-,N/A,,Mostly Cloudy,190,2011-10-31 15:30:00
4:00 PM,55.4,51.8,88,29.53,6.2,South,6.9,-,N/A,,Mostly Cloudy,180,2011-10-31 16:00:00
4:30 PM,55.4,51.8,88,29.53,6.2,SSW,8.1,-,N/A,,Mostly Cloudy,200,2011-10-31 16:30:00
5:00 PM,53.6,50.0,88,29.53,6.2,WSW,5.8,-,N/A,,Partly Cloudy,240,2011-10-31 17:00:00
5:30 PM,53.6,50.0,88,29.53,6.2,South,8.1,-,N/A,,Scattered Clouds,190,2011-10-31 17:30:00
6:00 PM,52,48,82,29.56,12,SSW,11.2,,,,Partly Cloudy,200,2011-10-31 18:00:00
6:00 PM,51.8,48.2,88,29.53,6.2,SSW,10.4,-,N/A,,Mostly Cloudy,200,2011-10-31 18:00:00
6:30 PM,51.8,48.2,88,29.56,6.2,SW,9.2,-,N/A,,Mostly Cloudy,220,2011-10-31 18:30:00
7:00 PM,51.8,48.2,88,29.56,6.2,SSW,9.2,-,N/A,,Mostly Cloudy,210,2011-10-31 19:00:00
7:30 PM,51.8,48.2,88,29.56,6.2,SSW,11.5,-,N/A,,Mostly Cloudy,210,2011-10-31 19:30:00
8:00 PM,50.0,48.2,94,29.56,6.2,SSW,10.4,-,N/A,,Mostly Cloudy,210,2011-10-31 20:00:00
8:30 PM,50.0,48.2,94,29.56,6.2,SSW,10.4,-,N/A,,Mostly Cloudy,210,2011-10-31 20:30:00
9:00 PM,50.0,46.4,87,29.56,-9999.0,SSW,11.5,-,N/A,,Clear,210,2011-10-31 21:00:00
9:30 PM,50.0,46.4,87,29.59,-9999.0,SSW,11.5,-,N/A,,Clear,210,2011-10-31 21:30:00
10:00 PM,48.2,46.4,93,29.59,-9999.0,SSW,10.4,-,N/A,,Clear,200,2011-10-31 22:00:00
10:30 PM,48.2,44.6,87,29.59,6.2,South,9.2,-,N/A,,Partly Cloudy,190,2011-10-31 22:30:00
11:00 PM,46.4,44.6,93,29.59,6.2,South,8.1,-,N/A,,Partly Cloudy,190,2011-10-31 23:00:00
11:30 PM,48.2,44.6,87,29.59,6.2,South,9.2,-,N/A,,Partly Cloudy,170,2011-10-31 23:30:00